| time (UTC) | temp C | wind direction | speed KPH | gust KPH | rain 1hr cm | rain 24hr cm | rain mn cm | humidity % | barometer mb |
| 20260506002948 | 23 | 78 | 8.0 | 9.7 | 0.00 | 0.13 | 0.13 | 40 | 1010.0 |
| 20260506002445 | 23 | 138 | 3.2 | 14.5 | 0.00 | 0.13 | 0.13 | 40 | 1009.9 |
| 20260506001940 | 23 | 117 | 4.8 | 8.0 | 0.00 | 0.13 | 0.13 | 39 | 1009.9 |
| 20260506001437 | 23 | 144 | 8.0 | 11.3 | 0.00 | 0.13 | 0.13 | 38 | 1009.8 |
| 20260506000935 | 23 | 140 | 6.4 | 8.0 | 0.00 | 0.13 | 0.13 | 37 | 1009.7 |
| 20260506000432 | 23 | 175 | 6.4 | 16.1 | 0.00 | 0.13 | 0.13 | 37 | 1009.9 |
| 20260505235929 | 23 | 142 | 8.0 | 12.9 | 0.00 | 0.13 | 0.13 | 37 | 1009.5 |
| 20260505235427 | 23 | 245 | 6.4 | 11.3 | 0.00 | 0.13 | 0.13 | 37 | 1009.5 |
| 20260505234923 | 23 | 145 | 4.8 | 8.0 | 0.00 | 0.13 | 0.13 | 36 | 1009.8 |
| 20260505234421 | 23 | 190 | 6.4 | 9.7 | 0.00 | 0.13 | 0.13 | 36 | 1009.5 |
| 20260505233917 | 24 | 201 | 6.4 | 22.5 | 0.00 | 0.13 | 0.13 | 36 | 1009.7 |
| 20260505233415 | 24 | 151 | 3.2 | 11.3 | 0.00 | 0.13 | 0.13 | 35 | 1009.8 |
| 20260505232913 | 24 | 167 | 14.5 | 20.9 | 0.00 | 0.13 | 0.13 | 35 | 1009.4 |
| 20260505232410 | 25 | 180 | 3.2 | 14.5 | 0.00 | 0.13 | 0.13 | 34 | 1009.5 |
| 20260505231907 | 25 | 172 | 9.7 | 17.7 | 0.00 | 0.13 | 0.13 | 34 | 1009.5 |
| 20260505231405 | 25 | 181 | 3.2 | 19.3 | 0.00 | 0.13 | 0.13 | 33 | 1009.3 |
| 20260505230903 | 25 | 216 | 14.5 | 14.5 | 0.00 | 0.13 | 0.13 | 33 | 1009.5 |
| 20260505230400 | 25 | 143 | 8.0 | 17.7 | 0.00 | 0.13 | 0.13 | 33 | 1009.5 |
| 20260505225856 | 25 | 150 | 8.0 | 8.0 | 0.00 | 0.13 | 0.13 | 33 | 1009.4 |
| 20260505225354 | 25 | 257 | 8.0 | 22.5 | 0.00 | 0.13 | 0.13 | 32 | 1009.2 |
| 20260505224849 | 25 | 53 | 3.2 | 9.7 | 0.00 | 0.13 | 0.13 | 31 | 1009.4 |
| 20260505224346 | 25 | 236 | 3.2 | 17.7 | 0.00 | 0.13 | 0.13 | 31 | 1009.4 |
| 20260505223843 | 25 | 150 | 19.3 | 27.4 | 0.00 | 0.13 | 0.13 | 31 | 1009.8 |
| 20260505223340 | 25 | 172 | 3.2 | 24.1 | 0.00 | 0.13 | 0.13 | 31 | 1009.2 |
| 20260505222836 | 25 | 163 | 8.0 | 19.3 | 0.00 | 0.13 | 0.13 | 32 | 1009.3 |
| 20260505222332 | 25 | 324 | 3.2 | 17.7 | 0.00 | 0.13 | 0.13 | 32 | 1009.1 |
| 20260505221830 | 25 | 164 | 16.1 | 16.1 | 0.00 | 0.13 | 0.13 | 32 | 1009.2 |
| 20260505221326 | 25 | 181 | 3.2 | 19.3 | 0.00 | 0.13 | 0.13 | 31 | 1009.3 |
| 20260505220823 | 25 | 214 | 6.4 | 14.5 | 0.00 | 0.13 | 0.13 | 31 | 1009.1 |
| 20260505220320 | 25 | 118 | 11.3 | 14.5 | 0.00 | 0.13 | 0.13 | 31 | 1009.2 |
| 20260505215818 | 26 | 298 | 3.2 | 14.5 | 0.00 | 0.13 | 0.13 | 32 | 1009.2 |
| 20260505215316 | 25 | 165 | 11.3 | 14.5 | 0.00 | 0.13 | 0.13 | 31 | 1009.2 |
| 20260505214814 | 25 | 156 | 6.4 | 9.7 | 0.00 | 0.13 | 0.13 | 32 | 1009.4 |
| 20260505214311 | 25 | 177 | 14.5 | 17.7 | 0.00 | 0.13 | 0.13 | 31 | 1009.3 |
| 20260505213808 | 26 | 299 | 1.6 | 14.5 | 0.00 | 0.13 | 0.13 | 32 | 1009.3 |
| 20260505213306 | 25 | 144 | 19.3 | 20.9 | 0.00 | 0.13 | 0.13 | 32 | 1009.1 |
| 20260505212801 | 26 | 157 | 16.1 | 24.1 | 0.00 | 0.13 | 0.13 | 30 | 1009.3 |
| 20260505212259 | 26 | 183 | 11.3 | 27.4 | 0.00 | 0.13 | 0.13 | 30 | 1009.1 |
| 20260505211755 | 26 | 256 | 11.3 | 17.7 | 0.00 | 0.13 | 0.13 | 30 | 1009.0 |
| 20260505211253 | 26 | 240 | 12.9 | 17.7 | 0.00 | 0.13 | 0.13 | 30 | 1008.6 |
| 20260505210749 | 26 | 210 | 3.2 | 19.3 | 0.00 | 0.13 | 0.13 | 31 | 1008.9 |
| 20260505210246 | 26 | 167 | 9.7 | 16.1 | 0.00 | 0.13 | 0.13 | 30 | 1008.9 |
| 20260505205743 | 26 | 229 | 11.3 | 17.7 | 0.00 | 0.13 | 0.13 | 31 | 1009.1 |
| 20260505205242 | 26 | 240 | 3.2 | 30.6 | 0.00 | 0.13 | 0.13 | 30 | 1008.8 |
| 20260505204737 | 26 | 248 | 8.0 | 25.7 | 0.00 | 0.13 | 0.13 | 30 | 1009.0 |
| 20260505204236 | 26 | 164 | 12.9 | 27.4 | 0.00 | 0.13 | 0.13 | 29 | 1009.1 |
| 20260505203732 | 26 | 175 | 16.1 | 22.5 | 0.00 | 0.13 | 0.13 | 29 | 1008.9 |
| 20260505203229 | 26 | 145 | 19.3 | 32.2 | 0.00 | 0.13 | 0.13 | 28 | 1009.1 |
| 20260505202725 | 26 | 179 | 14.5 | 33.8 | 0.00 | 0.13 | 0.13 | 28 | 1009.1 |
| 20260505202221 | 26 | 256 | 11.3 | 19.3 | 0.00 | 0.13 | 0.13 | 28 | 1009.1 |
| 20260505201718 | 26 | 177 | 4.8 | 17.7 | 0.00 | 0.13 | 0.13 | 29 | 1008.9 |
| 20260505201216 | 26 | 168 | 12.9 | 27.4 | 0.00 | 0.13 | 0.13 | 28 | 1009.1 |
| 20260505200714 | 26 | 189 | 6.4 | 22.5 | 0.00 | 0.13 | 0.13 | 28 | 1009.1 |
| 20260505200211 | 26 | 194 | 9.7 | 25.7 | 0.00 | 0.13 | 0.13 | 27 | 1009.2 |
| 20260505195706 | 27 | 197 | 19.3 | 20.9 | 0.00 | 0.13 | 0.13 | 27 | 1009.2 |
| 20260505195204 | 27 | 242 | 4.8 | 24.1 | 0.00 | 0.13 | 0.13 | 28 | 1009.0 |
| 20260505194701 | 26 | 180 | 12.9 | 27.4 | 0.00 | 0.13 | 0.13 | 26 | 1008.9 |
| 20260505194157 | 27 | 176 | 11.3 | 35.4 | 0.00 | 0.13 | 0.13 | 27 | 1009.2 |
| 20260505193653 | 26 | 282 | 12.9 | 27.4 | 0.00 | 0.13 | 0.13 | 27 | 1009.1 |
| 20260505193151 | 26 | 176 | 20.9 | 24.1 | 0.00 | 0.13 | 0.13 | 26 | 1009.1 |
| 20260505192649 | 26 | 172 | 37.0 | 43.5 | 0.00 | 0.13 | 0.13 | 26 | 1009.4 |
| 20260505192146 | 26 | 164 | 16.1 | 29.0 | 0.00 | 0.13 | 0.13 | 26 | 1009.0 |
| 20260505191645 | 26 | 169 | 16.1 | 25.7 | 0.00 | 0.13 | 0.13 | 27 | 1009.3 |
| 20260505191143 | 27 | 161 | 20.9 | 27.4 | 0.00 | 0.13 | 0.13 | 27 | 1009.7 |
| 20260505190638 | 26 | 150 | 17.7 | 20.9 | 0.00 | 0.13 | 0.13 | 28 | 1009.3 |
| 20260505190138 | 26 | 166 | 11.3 | 20.9 | 0.00 | 0.13 | 0.13 | 28 | 1009.4 |
| 20260505185635 | 26 | 122 | 14.5 | 30.6 | 0.00 | 0.13 | 0.13 | 27 | 1009.5 |
| 20260505185131 | 27 | 249 | 9.7 | 37.0 | 0.00 | 0.13 | 0.13 | 27 | 1009.7 |
| 20260505184628 | 27 | 130 | 9.7 | 30.6 | 0.00 | 0.13 | 0.13 | 28 | 1009.7 |
| 20260505184125 | 27 | 51 | 6.4 | 12.9 | 0.00 | 0.13 | 0.13 | 29 | 1009.9 |
| 20260505183622 | 26 | 193 | 17.7 | 38.6 | 0.00 | 0.13 | 0.13 | 28 | 1009.5 |
| 20260505183119 | 27 | 174 | 35.4 | 40.2 | 0.00 | 0.13 | 0.13 | 28 | 1009.5 |
| 20260505182615 | 26 | 184 | 17.7 | 38.6 | 0.00 | 0.13 | 0.13 | 30 | 1009.8 |
| 20260505182112 | 27 | 173 | 12.9 | 30.6 | 0.00 | 0.13 | 0.13 | 30 | 1009.9 |
| 20260505181609 | 27 | 158 | 8.0 | 19.3 | 0.00 | 0.13 | 0.13 | 30 | 1009.9 |
| 20260505181106 | 26 | 203 | 3.2 | 11.3 | 0.00 | 0.13 | 0.13 | 31 | 1010.0 |
| 20260505180602 | 27 | 131 | 12.9 | 24.1 | 0.00 | 0.13 | 0.13 | 30 | 1009.9 |
| 20260505180100 | 26 | 205 | 9.7 | 17.7 | 0.00 | 0.13 | 0.13 | 32 | 1010.1 |
| 20260505175555 | 26 | 164 | 16.1 | 24.1 | 0.00 | 0.13 | 0.13 | 32 | 1010.3 |
| 20260505175052 | 26 | 219 | 14.5 | 27.4 | 0.00 | 0.13 | 0.13 | 34 | 1010.2 |
| 20260505174549 | 26 | 186 | 17.7 | 37.0 | 0.00 | 0.13 | 0.13 | 34 | 1010.2 |
| 20260505174045 | 26 | 182 | 17.7 | 19.3 | 0.00 | 0.13 | 0.13 | 35 | 1010.2 |
| 20260505173542 | 26 | 112 | 14.5 | 32.2 | 0.00 | 0.13 | 0.13 | 34 | 1010.3 |
| 20260505173039 | 27 | 188 | 12.9 | 20.9 | 0.00 | 0.13 | 0.13 | 33 | 1010.3 |
| 20260505172537 | 26 | 184 | 4.8 | 24.1 | 0.00 | 0.13 | 0.13 | 34 | 1010.4 |
| 20260505172033 | 26 | 159 | 14.5 | 17.7 | 0.00 | 0.13 | 0.13 | 34 | 1010.3 |
| 20260505171528 | 26 | 200 | 4.8 | 20.9 | 0.00 | 0.13 | 0.13 | 35 | 1010.3 |
| 20260505171025 | 26 | 146 | 14.5 | 24.1 | 0.00 | 0.13 | 0.13 | 35 | 1010.6 |
| 20260505170522 | 26 | 192 | 4.8 | 11.3 | 0.00 | 0.13 | 0.13 | 36 | 1010.4 |
| 20260505170018 | 26 | 229 | 16.1 | 19.3 | 0.00 | 0.13 | 0.13 | 35 | 1010.5 |
| 20260505165513 | 26 | 170 | 8.0 | 11.3 | 0.00 | 0.13 | 0.13 | 37 | 1010.6 |
| 20260505165009 | 26 | 183 | 6.4 | 17.7 | 0.00 | 0.13 | 0.13 | 37 | 1010.9 |
| 20260505164505 | 26 | 184 | 9.7 | 11.3 | 0.00 | 0.13 | 0.13 | 37 | 1010.8 |
| 20260505164004 | 26 | 165 | 9.7 | 20.9 | 0.00 | 0.13 | 0.13 | 36 | 1010.8 |
| 20260505163502 | 26 | 171 | 9.7 | 16.1 | 0.00 | 0.13 | 0.13 | 36 | 1010.9 |
| 20260505163003 | 26 | 282 | 8.0 | 11.3 | 0.00 | 0.13 | 0.13 | 37 | 1011.2 |
| 20260505162457 | 26 | 157 | 8.0 | 12.9 | 0.00 | 0.13 | 0.13 | 37 | 1011.1 |
| 20260505161953 | 26 | 138 | 4.8 | 14.5 | 0.00 | 0.13 | 0.13 | 37 | 1010.9 |
| 20260505161450 | 26 | 171 | 3.2 | 8.0 | 0.00 | 0.13 | 0.13 | 38 | 1011.0 |
| 20260505160948 | 26 | 309 | 6.4 | 8.0 | 0.00 | 0.13 | 0.13 | 38 | 1011.2 |
| 20260505160446 | 25 | 281 | 4.8 | 12.9 | 0.00 | 0.13 | 0.13 | 38 | 1011.2 |
| 20260505152922 | 23 | 216 | 8.0 | 16.1 | 0.00 | 0.13 | 0.13 | 42 | 1011.7 |
| 20260505152419 | 23 | 290 | 3.2 | 16.1 | 0.00 | 0.13 | 0.13 | 44 | 1011.7 |
| 20260505151919 | 23 | 159 | 8.0 | 17.7 | 0.00 | 0.13 | 0.13 | 43 | 1011.4 |
| 20260505151415 | 22 | 251 | 6.4 | 12.9 | 0.00 | 0.13 | 0.13 | 45 | 1011.5 |
| 20260505150913 | 22 | 191 | 9.7 | 20.9 | 0.00 | 0.13 | 0.13 | 45 | 1011.9 |
| 20260505150410 | 22 | 162 | 6.4 | 6.4 | 0.00 | 0.13 | 0.13 | 46 | 1011.7 |
| 20260505140340 | 19 | 21 | 1.6 | 9.7 | 0.00 | 0.13 | 0.13 | 56 | 1012.4 |
| 20260505130303 | 16 | 154 | 11.3 | 11.3 | 0.00 | 0.13 | 0.13 | 68 | 1012.4 |
| 20260505124754 | 15 | 170 | 6.4 | 12.9 | 0.00 | 0.13 | 0.13 | 69 | 1012.2 |
| 20260505124251 | 15 | 129 | 3.2 | 8.0 | 0.00 | 0.13 | 0.13 | 70 | 1012.2 |
| 20260505123746 | 15 | 144 | 4.8 | 6.4 | 0.00 | 0.13 | 0.13 | 74 | 1012.1 |
| 20260505123243 | 15 | 116 | 1.6 | 4.8 | 0.00 | 0.13 | 0.13 | 75 | 1012.3 |
| 20260505122740 | 15 | 131 | 4.8 | 6.4 | 0.00 | 0.13 | 0.13 | 72 | 1012.2 |
| 20260505122237 | 15 | 180 | 3.2 | 12.9 | 0.00 | 0.13 | 0.13 | 72 | 1012.1 |
| 20260505121733 | 15 | 197 | 1.6 | 8.0 | 0.00 | 0.13 | 0.13 | 75 | 1012.0 |
| 20260505121230 | 15 | 146 | 6.4 | 9.7 | 0.00 | 0.13 | 0.13 | 74 | 1011.9 |
| 20260505120726 | 14 | 153 | 1.6 | 11.3 | 0.00 | 0.13 | 0.13 | 75 | 1012.0 |
| 20260505120223 | 14 | 129 | 8.0 | 11.3 | 0.00 | 0.13 | 0.13 | 79 | 1012.1 |
| 20260505115721 | 13 | 157 | 8.0 | 8.0 | 0.00 | 0.13 | 0.13 | 81 | 1012.1 |
| 20260505115219 | 13 | 149 | 4.8 | 6.4 | 0.00 | 0.13 | 0.13 | 80 | 1011.7 |
| 20260505114716 | 13 | 155 | 4.8 | 6.4 | 0.00 | 0.13 | 0.13 | 87 | 1011.9 |
| 20260505114212 | 13 | 150 | 6.4 | 8.0 | 0.00 | 0.13 | 0.13 | 85 | 1011.9 |
| 20260505113709 | 12 | 154 | 4.8 | 8.0 | 0.00 | 0.13 | 0.13 | 91 | 1011.9 |
| 20260505113206 | 11 | 120 | 3.2 | 3.2 | 0.00 | 0.13 | 0.13 | 95 | 1012.0 |
| 20260505112702 | 11 | 134 | 4.8 | 6.4 | 0.00 | 0.13 | 0.13 | 96 | 1011.9 |
| 20260505112200 | 11 | 185 | 0.0 | 3.2 | 0.00 | 0.13 | 0.13 | 96 | 1012.1 |
| 20260505111659 | 11 | 169 | 1.6 | 3.2 | 0.00 | 0.13 | 0.13 | 96 | 1012.1 |
| 20260505111155 | 11 | 41 | 1.6 | 3.2 | 0.00 | 0.13 | 0.13 | 96 | 1012.2 |
| 20260505110651 | 11 | 66 | 1.6 | 3.2 | 0.00 | 0.13 | 0.13 | 96 | 1012.0 |
| 20260505110149 | 10 | 28 | 3.2 | 3.2 | 0.05 | 0.13 | 0.13 | 95 | 1012.0 |
| 20260505102125 | 11 | 121 | 3.2 | 3.2 | 0.00 | 0.10 | 0.10 | 94 | 1011.7 |
| 20260505101623 | 11 | 36 | 0.0 | 3.2 | 0.00 | 0.10 | 0.10 | 94 | 1011.8 |
| 20260505101119 | 11 | 69 | 3.2 | 4.8 | 0.00 | 0.10 | 0.10 | 94 | 1011.8 |
| 20260505100615 | 11 | 66 | 3.2 | 3.2 | 0.00 | 0.10 | 0.10 | 93 | 1011.7 |
| 20260505100113 | 11 | 56 | 3.2 | 4.8 | 0.05 | 0.10 | 0.10 | 92 | 1011.7 |
| 20260505095609 | 11 | 39 | 0.0 | 3.2 | 0.13 | 0.10 | 0.10 | 92 | 1011.6 |
| 20260505095105 | 11 | 137 | 3.2 | 4.8 | 0.05 | 0.10 | 0.10 | 91 | 1011.6 |
| 20260505094602 | 11 | 42 | 8.0 | 9.7 | 0.05 | 0.10 | 0.10 | 90 | 1011.9 |
| 20260505094058 | 11 | 26 | 3.2 | 6.4 | 0.00 | 0.08 | 0.08 | 90 | 1011.9 |
| 20260505093554 | 11 | 116 | 3.2 | 6.4 | 0.00 | 0.08 | 0.08 | 88 | 1011.7 |
| 20260505093052 | 11 | 60 | 0.0 | 3.2 | 0.13 | 0.08 | 0.08 | 85 | 1011.6 |
| 20260505092549 | 12 | 59 | 4.8 | 8.0 | 0.36 | 0.08 | 0.08 | 81 | 1011.5 |
| 20260505092048 | 12 | 4 | 1.6 | 3.2 | 0.23 | 0.05 | 0.05 | 77 | 1011.8 |
| 20260505091544 | 12 | 44 | 6.4 | 6.4 | 0.13 | 0.03 | 0.03 | 73 | 1011.6 |
| 20260505091043 | 12 | 55 | 3.2 | 6.4 | 0.00 | 0.00 | 0.00 | 72 | 1011.9 |
| 20260505090540 | 12 | 345 | 1.6 | 3.2 | 0.00 | 0.00 | 0.00 | 71 | 1011.8 |
| 20260505090038 | 13 | 184 | 1.6 | 3.2 | 0.00 | 0.00 | 0.00 | 69 | 1011.6 |
| 20260505085535 | 13 | 131 | 3.2 | 4.8 | 0.00 | 0.00 | 0.00 | 69 | 1011.4 |
| 20260505085033 | 13 | 176 | 3.2 | 3.2 | 0.00 | 0.00 | 0.00 | 69 | 1011.6 |
| 20260505084531 | 13 | 323 | 3.2 | 9.7 | 0.00 | 0.00 | 0.00 | 68 | 1011.8 |
| 20260505084029 | 13 | 48 | 11.3 | 11.3 | 0.00 | 0.00 | 0.00 | 68 | 1011.0 |
| 20260505083526 | 13 | 156 | 4.8 | 8.0 | 0.00 | 0.00 | 0.00 | 66 | 1011.0 |
| 20260505083023 | 13 | 167 | 3.2 | 3.2 | 0.00 | 0.00 | 0.00 | 66 | 1011.2 |
| 20260505082518 | 13 | 179 | 3.2 | 4.8 | 0.00 | 0.00 | 0.00 | 66 | 1011.2 |
| 20260505082015 | 13 | 163 | 3.2 | 6.4 | 0.00 | 0.00 | 0.00 | 66 | 1011.1 |
| 20260505081512 | 13 | 155 | 6.4 | 6.4 | 0.00 | 0.00 | 0.00 | 64 | 1011.1 |
| 20260505081009 | 13 | 169 | 3.2 | 4.8 | 0.00 | 0.00 | 0.00 | 63 | 1010.9 |
| 20260505080505 | 13 | 148 | 4.8 | 4.8 | 0.00 | 0.00 | 0.00 | 62 | 1010.9 |
| 20260505080001 | 14 | 165 | 3.2 | 4.8 | 0.00 | 0.00 | 0.00 | 61 | 1010.9 |
| 20260505075458 | 15 | 162 | 3.2 | 6.4 | 0.00 | 0.00 | 0.00 | 60 | 1011.2 |
| 20260505074954 | 14 | 168 | 4.8 | 9.7 | 0.00 | 0.00 | 0.00 | 60 | 1011.1 |
| 20260505074452 | 14 | 171 | 0.0 | 4.8 | 0.00 | 0.00 | 0.00 | 60 | 1011.2 |
| 20260505073949 | 13 | 168 | 1.6 | 3.2 | 0.00 | 0.00 | 0.00 | 61 | 1011.3 |
| 20260505073447 | 13 | 161 | 3.2 | 4.8 | 0.00 | 0.00 | 0.00 | 60 | 1011.0 |
| 20260505072944 | 14 | 151 | 4.8 | 4.8 | 0.00 | 0.00 | 0.00 | 60 | 1011.1 |
| 20260505072440 | 13 | 143 | 3.2 | 6.4 | 0.00 | 0.00 | 0.00 | 60 | 1010.9 |
| 20260505071936 | 14 | 151 | 4.8 | 6.4 | 0.00 | 0.00 | 0.00 | 59 | 1010.9 |
| 20260505071432 | 14 | 148 | 1.6 | 6.4 | 0.00 | 0.00 | 0.00 | 59 | 1011.1 |
| 20260505070930 | 14 | 157 | 4.8 | 6.4 | 0.00 | 0.00 | 0.00 | 59 | 1011.3 |
| 20260505070427 | 14 | 163 | 3.2 | 6.4 | 0.00 | 0.00 | 0.00 | 59 | 1011.2 |
| 20260505065922 | 14 | 145 | 1.6 | 3.2 | 0.00 | 0.00 | 0.00 | 58 | 1011.2 |
| 20260505065419 | 14 | 102 | 3.2 | 3.2 | 0.00 | 0.00 | 0.00 | 58 | 1011.2 |
| 20260505064916 | 14 | 310 | 0.0 | 3.2 | 0.00 | 0.00 | 0.00 | 58 | 1011.2 |
| 20260505064413 | 14 | 145 | 4.8 | 6.4 | 0.00 | 0.00 | 0.00 | 57 | 1011.1 |
| 20260505063911 | 15 | 123 | 3.2 | 4.8 | 0.00 | 0.00 | 0.00 | 57 | 1011.1 |
| 20260505063407 | 15 | 152 | 4.8 | 6.4 | 0.00 | 0.00 | 0.00 | 56 | 1011.0 |
| 20260505062904 | 15 | 129 | 3.2 | 6.4 | 0.00 | 0.00 | 0.00 | 56 | 1011.1 |
| 20260505062401 | 15 | 156 | 3.2 | 6.4 | 0.00 | 0.00 | 0.00 | 56 | 1011.1 |
| 20260505061858 | 15 | 169 | 3.2 | 6.4 | 0.00 | 0.00 | 0.00 | 57 | 1011.2 |
| 20260505061356 | 15 | 141 | 6.4 | 8.0 | 0.00 | 0.00 | 0.00 | 55 | 1011.3 |
| 20260505060853 | 15 | 146 | 0.0 | 11.3 | 0.00 | 0.00 | 0.00 | 55 | 1011.1 |
| 20260505060350 | 14 | 87 | 1.6 | 4.8 | 0.00 | 0.00 | 0.00 | 57 | 1011.2 |
| 20260505055846 | 15 | 110 | 1.6 | 8.0 | 0.00 | 0.00 | 0.00 | 55 | 1011.1 |
| 20260505055342 | 15 | 122 | 6.4 | 6.4 | 0.00 | 0.00 | 0.00 | 55 | 1011.1 |
| 20260505054839 | 15 | 75 | 0.0 | 6.4 | 0.00 | 0.00 | 0.00 | 55 | 1011.2 |
| 20260505054337 | 15 | 92 | 3.2 | 4.8 | 0.00 | 0.00 | 0.00 | 55 | 1011.0 |
| 20260505053835 | 15 | 121 | 4.8 | 8.0 | 0.00 | 0.00 | 0.00 | 55 | 1011.1 |
| 20260505053332 | 15 | 148 | 4.8 | 8.0 | 0.00 | 0.00 | 0.00 | 54 | 1011.2 |
| 20260505052828 | 15 | 120 | 4.8 | 6.4 | 0.00 | 0.00 | 0.00 | 54 | 1011.0 |
| 20260505052325 | 15 | 147 | 4.8 | 4.8 | 0.00 | 0.00 | 0.00 | 54 | 1011.2 |
| 20260505051822 | 15 | 98 | 3.2 | 6.4 | 0.00 | 0.00 | 0.00 | 54 | 1011.1 |
| 20260505051320 | 15 | 133 | 3.2 | 4.8 | 0.00 | 0.00 | 0.00 | 54 | 1011.3 |
| 20260505050818 | 15 | 115 | 3.2 | 6.4 | 0.00 | 0.00 | 0.00 | 53 | 1011.1 |
| 20260505050316 | 15 | 159 | 9.7 | 9.7 | 0.00 | 0.00 | 0.00 | 52 | 1011.2 |
| 20260505041746 | 13 | 95 | 3.2 | 6.4 | 0.00 | 0.00 | 0.00 | 57 | 1011.1 |
| 20260505041243 | 14 | 166 | 3.2 | 8.0 | 0.00 | 0.00 | 0.00 | 56 | 1011.1 |
| 20260505040740 | 15 | 152 | 6.4 | 6.4 | 0.00 | 0.00 | 0.00 | 55 | 1011.2 |
| 20260505040238 | 14 | 114 | 4.8 | 6.4 | 0.00 | 0.00 | 0.00 | 53 | 1010.9 |
| 20260505035735 | 14 | 125 | 6.4 | 6.4 | 0.00 | 0.00 | 0.00 | 53 | 1011.0 |
| 20260505035230 | 14 | 187 | 3.2 | 8.0 | 0.00 | 0.00 | 0.00 | 56 | 1011.1 |
| 20260505034727 | 14 | 101 | 4.8 | 4.8 | 0.00 | 0.00 | 0.00 | 55 | 1011.1 |
| 20260505034224 | 14 | 130 | 6.4 | 6.4 | 0.00 | 0.00 | 0.00 | 53 | 1011.2 |
| 20260505033721 | 15 | 119 | 4.8 | 8.0 | 0.00 | 0.00 | 0.00 | 51 | 1011.0 |
| 20260505033219 | 15 | 172 | 4.8 | 6.4 | 0.00 | 0.00 | 0.00 | 51 | 1011.1 |
| 20260505032716 | 15 | 151 | 3.2 | 8.0 | 0.00 | 0.00 | 0.00 | 50 | 1011.0 |
| 20260505032212 | 15 | 139 | 3.2 | 6.4 | 0.00 | 0.00 | 0.00 | 51 | 1011.2 |
| 20260505031710 | 15 | 106 | 3.2 | 6.4 | 0.00 | 0.00 | 0.00 | 51 | 1011.2 |
| 20260505031206 | 15 | 136 | 6.4 | 6.4 | 0.00 | 0.00 | 0.00 | 50 | 1011.2 |
| 20260505030703 | 15 | 142 | 3.2 | 4.8 | 0.00 | 0.00 | 0.00 | 53 | 1011.1 |
| 20260505030159 | 15 | 121 | 3.2 | 6.4 | 0.00 | 0.00 | 0.00 | 51 | 1011.2 |
| 20260505025655 | 15 | 129 | 4.8 | 6.4 | 0.00 | 0.00 | 0.00 | 50 | 1011.1 |
| 20260505025153 | 15 | 87 | 3.2 | 4.8 | 0.00 | 0.00 | 0.00 | 49 | 1011.2 |
| 20260505024651 | 15 | 122 | 4.8 | 8.0 | 0.00 | 0.00 | 0.00 | 49 | 1011.2 |
| 20260505024147 | 15 | 132 | 4.8 | 4.8 | 0.00 | 0.00 | 0.00 | 50 | 1011.3 |
| 20260505023645 | 15 | 146 | 4.8 | 4.8 | 0.00 | 0.00 | 0.00 | 51 | 1011.4 |
| 20260505023142 | 15 | 108 | 3.2 | 6.4 | 0.00 | 0.00 | 0.00 | 50 | 1011.5 |
| 20260505022640 | 15 | 173 | 0.0 | 6.4 | 0.00 | 0.00 | 0.00 | 51 | 1011.4 |
| 20260505022137 | 14 | 124 | 4.8 | 6.4 | 0.00 | 0.00 | 0.00 | 53 | 1011.5 |
| 20260505021633 | 14 | 111 | 4.8 | 6.4 | 0.00 | 0.00 | 0.00 | 52 | 1011.6 |
| 20260505021130 | 14 | 111 | 3.2 | 3.2 | 0.00 | 0.00 | 0.00 | 53 | 1011.6 |
| 20260505020626 | 13 | 160 | 3.2 | 6.4 | 0.00 | 0.00 | 0.00 | 57 | 1011.6 |
| 20260505020122 | 13 | 64 | 3.2 | 4.8 | 0.00 | 0.00 | 0.00 | 57 | 1011.6 |
| 20260505015619 | 13 | 57 | 3.2 | 3.2 | 0.00 | 0.00 | 0.00 | 57 | 1011.5 |
| 20260505015116 | 13 | 154 | 0.0 | 3.2 | 0.00 | 0.00 | 0.00 | 58 | 1011.3 |
| 20260505014613 | 13 | 135 | 0.0 | 3.2 | 0.00 | 0.00 | 0.00 | 55 | 1011.3 |
| 20260505014110 | 13 | 39 | 3.2 | 3.2 | 0.00 | 0.00 | 0.00 | 54 | 1011.4 |
| 20260505013607 | 14 | 16 | 0.0 | 1.6 | 0.00 | 0.00 | 0.00 | 54 | 1011.3 |
| 20260505013104 | 14 | 73 | 3.2 | 3.2 | 0.00 | 0.00 | 0.00 | 54 | 1011.4 |
| 20260505012602 | 14 | 76 | 3.2 | 3.2 | 0.00 | 0.00 | 0.00 | 52 | 1011.3 |
| 20260505012059 | 15 | 46 | 3.2 | 3.2 | 0.00 | 0.00 | 0.00 | 53 | 1011.2 |
| 20260505011554 | 15 | 43 | 1.6 | 3.2 | 0.00 | 0.00 | 0.00 | 51 | 1011.2 |
| 20260505011052 | 15 | 48 | 0.0 | 1.6 | 0.00 | 0.00 | 0.00 | 51 | 1011.2 |
| 20260505010547 | 15 | 124 | 0.0 | 1.6 | 0.00 | 0.00 | 0.00 | 50 | 1011.2 |
| 20260505010044 | 15 | 113 | 0.0 | 1.6 | 0.00 | 0.00 | 0.00 | 50 | 1011.2 |
| 20260505005540 | 16 | 167 | 1.6 | 1.6 | 0.00 | 0.00 | 0.00 | 48 | 1010.8 |
| 20260505005038 | 16 | 114 | 0.0 | 1.6 | 0.00 | 0.00 | 0.00 | 48 | 1010.9 |
| 20260505004535 | 16 | 226 | 0.0 | 1.6 | 0.00 | 0.00 | 0.00 | 46 | 1010.8 |
| 20260505004032 | 17 | 79 | 0.0 | 3.2 | 0.00 | 0.00 | 0.00 | 45 | 1011.0 |
| 20260505003529 | 17 | 123 | 3.2 | 3.2 | 0.00 | 0.00 | 0.00 | 43 | 1011.0 |